[[{"header":{"parameterUnit":"m.s-1","parameterCategory":1,"la1":30.2991,"la2":30.254,"lo1":-89.0895,"lo2":-89.0444,"dy":0.0017,"dx":0.0017,"nx":28,"ny":28,"refTime":"2025-08-26T03:00:00:Z","depth":0,"parameterNumber":2,"parameterNumberName":"U-component_of_WINDS"},"data":[0,0,0,0,0,0,0,0,0,0,0,0,0,0,0,0,0,0,0,0,0,0,0,0,0,0,0,0,0,0,0,0,0,0,0,0,0,0,0,0,0,0,0,0,0,0,0,0,0,0,0,0,0,0,0,0,0,0,-0.993,-0.993,0,-0.9876,-0.9875,-0.9875,-0.977,-0.9768,-0.9766,-0.9764,-0.9711,-0.9712,-0.9712,0,0,0,0,0,0,0,0,0,0,0,0,0,-0.9947,-0.9947,-0.993,-0.993,-0.9929,-0.9876,-0.9875,-0.9875,-0.977,-0.9768,-0.9765,-0.9763,-0.9711,-0.9712,-0.9713,0,0,0,0,0,0,0,0,0,0,0,0,0,-0.9921,-0.9947,-0.993,-0.987,-0.9864,-0.9876,-0.9875,-0.9874,-0.9771,-0.9768,-0.9765,-0.9762,-0.9711,-0.9712,-0.9713,-0.978,0,0,-0.9715,-0.9715,0,0,0,0,0,0,0,0,-0.9923,-0.9921,-0.988,-0.9874,-0.9868,-0.9826,-0.9862,-0.9843,-0.9772,-0.9806,-0.9764,-0.976,-0.9752,-0.975,-0.9746,-0.9777,-0.9775,-0.9715,-0.9716,-0.9716,-0.9716,0,0,0,0,0,0,0,-0.9925,-0.9922,-0.9909,-0.9879,-0.9872,-0.9847,-0.984,-0.9858,-0.9798,-0.9803,-0.9795,-0.979,-0.9749,-0.9746,-0.9744,-0.9774,-0.9715,-0.9716,-0.9716,-0.9717,-0.9859,-0.9862,0,0,0,0,0,0,-0.9935,-0.9925,-0.9911,-0.9907,-0.9888,-0.985,-0.9842,-0.9843,-0.9797,-0.9787,-0.9793,-0.9786,-0.9746,-0.9744,-0.9742,-0.9819,-0.9716,-0.9717,-0.9717,-0.9856,-0.986,-0.9863,0,0,0,0,0,0,-0.9935,-0.9934,-0.9913,-0.9914,-0.9909,-0.9852,-0.9855,-0.9844,-0.9841,-0.9789,-0.9778,-0.9801,-0.9743,-0.9741,-0.9771,-0.9815,-0.9717,-0.9718,-0.9852,-0.9857,-0.9861,-0.9972,0,0,0,0,0,0,-0.9936,-0.9935,-0.9959,-0.9915,-0.9909,-0.9942,-0.9858,-0.9845,-0.9842,-0.9832,-0.9794,-0.9785,-0.9741,-0.9771,-0.9772,-0.9815,-0.9718,-0.9848,-0.9854,-0.986,-0.9964,-0.998,-0.9994,0,0,0,0,0,-0.9937,-0.9993,-0.9961,-0.996,-0.9938,-0.9945,-0.9941,-0.9889,-0.9846,-0.987,-0.9837,-0.9786,-0.981,-0.9775,-0.9775,-0.9819,-0.9845,-0.9852,-0.9859,-0.9957,-0.9977,-0.9993,0,0,0,0,0,0,-1.0044,-0.9986,-0.995,-0.9992,-0.9974,-0.9927,-0.9956,-0.9911,-0.9905,-0.9896,-0.9832,-0.9825,-0.9864,-0.9844,-0.9805,-0.9882,-0.9819,-0.9827,-0.9894,-0.9912,-0.9926,-0.9931,-0.9719,0,0,0,0,0,-1.0073,-1.0082,-1.0031,-1.0073,-1.0066,-1.0013,-1.0014,-0.9975,-0.9954,-0.9946,-0.9915,-0.9898,-0.9901,-0.9905,-0.9906,-0.996,-0.9952,-0.9991,-1.0006,-1.0018,-1.0026,-1.0056,-1.0073,-0.9888,-0.9888,-0.9887,0,0,-1.0132,-1.0101,-1.0111,-1.0094,-1.0075,-1.0088,-1.0007,-1.0023,-1.0032,-0.9948,-0.9975,-0.9953,-0.9929,-0.9972,-0.999,-0.9957,-1.0075,-1.0028,-1.0038,-1.0039,-1.0065,-1.0083,-1.0098,-0.9893,-0.9892,-0.9891,0,0,-1.0246,-1.0223,-1.0256,-1.024,-1.0212,-1.0176,-1.0185,-1.0144,-1.0126,-1.0152,-1.009,-1.01,-1.0107,-1.0093,-1.0087,-1.0198,-1.0151,-1.02,-1.0278,-1.0307,-1.0322,-1.0334,-1.0376,-1.0391,-1.0208,-1.0208,-1.0208,0,-1.0323,-1.0338,-1.028,-1.03,-1.0295,-1.022,-1.0254,-1.0241,-1.0216,-1.0215,-1.0178,-1.0187,-1.0165,-1.0205,-1.0232,-1.023,-1.0238,-1.0204,-1.0324,-1.0336,-1.0347,-1.0386,-1.0401,-1.0214,-1.0214,-1.0213,-1.0213,0,-1.0435,-1.0447,-1.0477,-1.0454,-1.0453,-1.0481,-1.0428,-1.0434,-1.0395,-1.0364,-1.0393,-1.0364,-1.0359,-1.0365,-1.0328,-1.04,-1.0381,-1.0335,-1.0271,-1.0372,-1.0407,-1.0421,-1.0223,-1.0221,-1.0219,-1.0218,0,0,-1.0615,-1.056,-1.0572,-1.0562,-1.0526,-1.0535,-1.056,-1.0553,-1.056,-1.0546,-1.0566,-1.0575,-1.0533,-1.0526,-1.0487,-1.0513,-1.0604,-1.0463,-1.0462,-1.0492,-1.0685,-1.072,-1.0738,-1.0573,-1.0575,-1.0577,-1.0687,0,-1.0722,-1.076,-1.0709,-1.076,-1.0771,-1.0699,-1.0721,-1.0703,-1.0675,-1.0682,-1.0651,-1.0659,-1.0601,-1.0597,-1.0619,-1.0588,-1.0642,-1.058,-1.0593,-1.0594,-1.0602,-1.0756,-1.0793,-1.0898,-1.07,-1.0703,-1.0704,0,-1.0852,-1.0844,-1.0895,-1.0858,-1.0861,-1.0881,-1.0872,-1.0878,-1.0857,-1.0835,-1.0829,-1.0782,-1.0805,-1.0742,-1.0775,-1.0734,-1.0736,-1.0722,-1.0725,-1.0725,-1.0656,-1.0762,-1.093,-1.0947,-1.0725,-1.0723,-1.0722,0,-1.098,-1.0982,-1.1013,-1.1006,-1.0963,-1.0979,-1.0962,-1.0937,-1.0938,-1.093,-1.093,-1.0926,-1.0924,-1.0922,-1.0876,-1.0834,-1.0915,-1.0848,-1.0899,-1.0901,-1.092,-1.092,-1.1093,-1.092,-1.092,-1.092,-1.0919,0,-1.1106,-1.1141,-1.107,-1.1089,-1.1127,-1.1068,-1.1107,-1.1083,-1.1062,-1.1077,-1.1015,-1.1031,-1.0968,-1.0977,-1.0942,-1.0975,-1.0975,-1.0959,-1.0949,-1.0965,-1.0967,-1.0967,-1.0959,-1.0924,-1.0923,-1.0922,-1.0921,0,-1.1255,-1.1209,-1.1239,-1.1196,-1.1186,-1.1216,-1.1179,-1.1197,-1.1165,-1.1184,-1.1186,-1.1136,-1.1144,-1.1098,-1.1097,-1.1074,-1.1126,-1.1103,-1.1133,-1.1126,-1.118,-1.1177,-1.136,-1.1382,-1.1194,-1.1196,-1.1198,0,-1.1339,-1.1364,-1.1324,-1.1329,-1.1315,-1.1324,-1.1324,-1.1268,-1.127,-1.1249,-1.1269,-1.1272,-1.1271,-1.1287,-1.1252,-1.1252,-1.123,-1.1294,-1.1229,-1.1245,-1.1233,-1.1232,-1.1236,-1.1308,-1.1311,-1.1312,-1.1314,0,-1.1493,-1.1469,-1.147,-1.1465,-1.1466,-1.1459,-1.1448,-1.1456,-1.1395,-1.1402,-1.1408,-1.1408,-1.1408,-1.1412,-1.1405,-1.1389,-1.1343,-1.1335,-1.1347,-1.1364,-1.1381,-1.1374,-1.1171,-1.1331,-1.1329,-1.1328,-1.1327,-1.1326,-1.1613,-1.1633,-1.1608,-1.1612,-1.1598,-1.1589,-1.1603,-1.1573,-1.1578,-1.1573,-1.154,-1.1554,-1.1533,-1.1519,-1.1508,-1.1519,-1.1488,-1.1506,-1.151,-1.1516,-1.1526,-1.1378,-1.1517,-1.1517,-1.1516,-1.1516,-1.1515,0,-1.1765,-1.1746,-1.175,-1.1737,-1.1741,-1.1695,-1.1681,-1.1688,-1.17,-1.1684,-1.1685,-1.1694,-1.1699,-1.1664,-1.1664,-1.168,-1.1659,-1.1682,-1.1681,-1.1679,-1.1553,-1.1543,-1.17,-1.17,-1.1699,-1.1699,-1.1699,-1.1699,-1.1845,-1.1876,-1.185,-1.1874,-1.1854,-1.1867,-1.1863,-1.1856,-1.1843,-1.1856,-1.1859,-1.1836,-1.1814,-1.1812,-1.1814,-1.1804,-1.1808,-1.1839,-1.1822,-1.1705,-1.1687,-1.167,-1.1661,-1.184,-1.184,-1.1948,-1.1949,-1.1949]},{"header":{"parameterUnit":"m.s-1","parameterCategory":1,"la1":30.2991,"la2":30.254,"lo1":-89.0895,"lo2":-89.0444,"dy":0.0017,"dx":0.0017,"nx":28,"ny":28,"refTime":"2025-08-26T03:00:00:Z","depth":0,"parameterNumber":3,"parameterNumberName":"V-component_of_WINDS"},"data":[0,0,0,0,0,0,0,0,0,0,0,0,0,0,0,0,0,0,0,0,0,0,0,0,0,0,0,0,0,0,0,0,0,0,0,0,0,0,0,0,0,0,0,0,0,0,0,0,0,0,0,0,0,0,0,0,0,0,0.8295,0.8295,0,0.8273,0.8273,0.8272,0.8271,0.8272,0.8272,0.8272,0.8245,0.8244,0.8243,0,0,0,0,0,0,0,0,0,0,0,0,0,0.8333,0.8332,0.8295,0.8295,0.8295,0.8273,0.8273,0.8272,0.8271,0.8272,0.8272,0.8272,0.8245,0.8244,0.8243,0,0,0,0,0,0,0,0,0,0,0,0,0,0.8314,0.8332,0.8295,0.8292,0.8291,0.8273,0.8272,0.8272,0.8271,0.8272,0.8272,0.8273,0.8246,0.8244,0.8243,0.8225,0,0,0.8238,0.8237,0,0,0,0,0,0,0,0,0.8315,0.8313,0.8292,0.8292,0.8291,0.8275,0.8276,0.8256,0.8271,0.8279,0.8272,0.8273,0.8254,0.8252,0.8247,0.8224,0.8223,0.8238,0.8237,0.8236,0.8236,0,0,0,0,0,0,0,0.8316,0.8313,0.8286,0.8292,0.8291,0.829,0.8288,0.8272,0.8264,0.8278,0.8278,0.8276,0.8254,0.8248,0.8246,0.8222,0.8238,0.8237,0.8236,0.8235,0.8182,0.8182,0,0,0,0,0,0,0.8319,0.8315,0.8287,0.8285,0.8305,0.8289,0.8286,0.828,0.8264,0.8263,0.8275,0.8276,0.8251,0.8248,0.8245,0.8223,0.8236,0.8235,0.8234,0.8183,0.8182,0.8181,0,0,0,0,0,0,0.832,0.8316,0.8288,0.83,0.8296,0.8288,0.8281,0.8279,0.8274,0.8262,0.8261,0.8271,0.8251,0.8247,0.823,0.8222,0.8234,0.8233,0.8183,0.8182,0.8182,0.8178,0,0,0,0,0,0,0.8321,0.8317,0.8311,0.83,0.8296,0.8274,0.828,0.8279,0.8272,0.8272,0.8258,0.8256,0.8251,0.8232,0.8229,0.822,0.8232,0.8184,0.8183,0.8182,0.8179,0.8177,0.8176,0,0,0,0,0,0.8322,0.831,0.8311,0.8307,0.8288,0.8274,0.8271,0.8267,0.8271,0.8264,0.8257,0.8256,0.8224,0.8231,0.8226,0.8217,0.8184,0.8183,0.8182,0.8179,0.8177,0.8176,0,0,0,0,0,0,0.8319,0.8308,0.8309,0.8293,0.8285,0.8274,0.8265,0.8265,0.8254,0.8254,0.8248,0.8245,0.8228,0.8221,0.8229,0.8199,0.8204,0.8202,0.8204,0.8202,0.82,0.8201,0.8231,0,0,0,0,0,0.8316,0.8307,0.8298,0.8285,0.828,0.8274,0.8267,0.8265,0.8255,0.8251,0.8242,0.8231,0.8218,0.821,0.8197,0.8178,0.8174,0.817,0.8168,0.8167,0.8165,0.8153,0.815,0.8178,0.8178,0.8178,0,0,0.8311,0.8304,0.8298,0.8284,0.8277,0.8265,0.827,0.8258,0.8249,0.8248,0.8232,0.8225,0.8212,0.8194,0.8185,0.8187,0.8157,0.8166,0.8165,0.8163,0.8151,0.8149,0.8146,0.8177,0.8177,0.8177,0,0,0.8295,0.8289,0.8277,0.8271,0.826,0.8256,0.8253,0.8243,0.8239,0.8222,0.8221,0.821,0.8188,0.8179,0.8171,0.8152,0.815,0.8148,0.814,0.8128,0.8126,0.8124,0.8116,0.8113,0.8146,0.8146,0.8146,0,0.8288,0.8273,0.8271,0.8259,0.8252,0.8252,0.8239,0.8232,0.8218,0.8212,0.8216,0.8189,0.818,0.8159,0.8154,0.8149,0.8144,0.8149,0.8127,0.8125,0.8123,0.8115,0.8112,0.8146,0.8146,0.8146,0.8146,0,0.8265,0.8254,0.8246,0.8233,0.8226,0.8213,0.8208,0.82,0.8199,0.8193,0.8176,0.8166,0.8151,0.8146,0.8144,0.8125,0.8126,0.8128,0.8133,0.812,0.8112,0.8109,0.8145,0.8146,0.8146,0.8146,0,0,0.8245,0.8233,0.8229,0.8223,0.8212,0.8203,0.819,0.8177,0.817,0.816,0.8148,0.813,0.8132,0.8124,0.812,0.8111,0.8094,0.8114,0.8113,0.8109,0.807,0.8068,0.8064,0.8094,0.8093,0.8093,0.8071,0,0.8226,0.8205,0.8203,0.8183,0.8172,0.8173,0.8161,0.8152,0.8147,0.8136,0.813,0.8117,0.8121,0.8116,0.8106,0.8098,0.8086,0.81,0.808,0.808,0.8082,0.806,0.8058,0.8037,0.8068,0.8067,0.8067,0,0.8202,0.8193,0.8172,0.8163,0.8158,0.8148,0.8136,0.8126,0.8115,0.8112,0.8103,0.8101,0.8086,0.8093,0.8072,0.8081,0.8073,0.8068,0.8067,0.8064,0.8071,0.8055,0.803,0.8027,0.8063,0.8063,0.8063,0,0.8187,0.817,0.8155,0.8151,0.8139,0.8132,0.8127,0.8117,0.8109,0.8098,0.8093,0.808,0.8072,0.8061,0.8055,0.8061,0.8033,0.804,0.8028,0.8028,0.8021,0.8021,0.7993,0.8018,0.8019,0.8019,0.8019,0,0.8166,0.8153,0.8149,0.8139,0.8124,0.8122,0.8107,0.8101,0.8093,0.8081,0.8081,0.8069,0.8063,0.8051,0.8046,0.8028,0.8024,0.802,0.8019,0.8019,0.8019,0.8012,0.8013,0.8018,0.8018,0.8018,0.8018,0,0.8147,0.8144,0.8127,0.8118,0.8116,0.8105,0.8097,0.8087,0.8082,0.8068,0.8064,0.8056,0.8042,0.8035,0.8017,0.8013,0.7992,0.7992,0.7996,0.7995,0.7983,0.7983,0.7948,0.7943,0.7973,0.7973,0.7973,0,0.8132,0.8123,0.8113,0.8106,0.8101,0.809,0.8082,0.8079,0.8071,0.8059,0.805,0.8036,0.8024,0.8,0.7991,0.7977,0.7976,0.7965,0.7973,0.7974,0.7973,0.7973,0.7972,0.7962,0.7962,0.7962,0.7962,0,0.8107,0.8106,0.8096,0.8085,0.8077,0.8068,0.8059,0.8053,0.8048,0.8039,0.8025,0.8016,0.7997,0.7982,0.7968,0.796,0.7959,0.7959,0.7955,0.7955,0.7956,0.7954,0.7989,0.7959,0.796,0.796,0.796,0.796,0.8088,0.8079,0.8071,0.806,0.8053,0.8045,0.8036,0.803,0.8019,0.8005,0.8004,0.7988,0.7977,0.7957,0.7949,0.7936,0.7938,0.7933,0.7932,0.793,0.7928,0.7961,0.7933,0.7933,0.7933,0.7933,0.7933,0,0.8062,0.8057,0.8047,0.8035,0.8025,0.8028,0.8018,0.801,0.7996,0.7987,0.7976,0.7959,0.7945,0.7936,0.7921,0.7912,0.7911,0.7907,0.7907,0.7905,0.7928,0.7932,0.7908,0.7908,0.7908,0.7908,0.7908,0.7908,0.8046,0.8031,0.8029,0.801,0.8005,0.799,0.7985,0.7976,0.7969,0.7951,0.7939,0.7934,0.7924,0.7909,0.7895,0.7893,0.7886,0.7883,0.788,0.7901,0.7904,0.7906,0.791,0.7882,0.7882,0.7858,0.7858,0.7858]}]]